Regional Weather Roundup
Issued by NWS

Home | Current Version | Previous Version | Text Only | Print | Product List | Glossary On
Versions: 1 2 3 4 5 6 7 8 9 10 11 12 13 14 15 16 17 18 19 20 21 22 23 24 25 26 27 28 29 30 31 32 33 34 35 36 37 38 39 40 41 42 43 44 45 46 47 48 49 50
000
ASUS44 KBMX 222210
RWRAL

ALABAMA REGIONAL WEATHER ROUNDUP
NATIONAL WEATHER SERVICE BIRMINGHAM AL
400 PM CST MON DEC 22 2014

NOTE: "FAIR" INDICATES FEW OR NO CLOUDS BELOW 12,000 FEET
WITH NO SIGNIFICANT WEATHER AND/OR OBSTRUCTIONS TO VISIBILITY.

THE REMARK "TC" DENOTES TEMPERATURE IN DEGREES CELSIUS.

ALZ001>011-014-016>018-020-222300-
NORTH ALABAMA

CITY           SKY/WX    TMP DP  RH WIND       PRES   REMARKS
MUSCLE SHOALS  CLOUDY    53  50  89 SE8       29.75F
HUNTSVILLE     CLOUDY    52  47  83 SE14      29.78S
DECATUR        CLOUDY    51  48  89 SE13      29.78S
HALEYVILLE     LGT RAIN  50  50 100 VRB5      29.77F VSB 1
GADSDEN        CLOUDY    50  46  87 E7        29.83F
$$

ALZ012-013-022-023-030>036-040>044-222300-
WEST CENTRAL ALABAMA

CITY           SKY/WX    TMP DP  RH WIND       PRES   REMARKS
TUSCALOOSA     CLOUDY    57  53  86 E6        29.76S
$$

ALZ015-024>027-033>036-040>044-222300-
CENTRAL ALABAMA

CITY           SKY/WX    TMP DP  RH WIND       PRES   REMARKS
BIRMINGHAM     CLOUDY    53  51  93 E6        29.81S
MONTGOMERY     LGT RAIN  53  51  93 E10       29.83R FOG
SHELBY CO ARPT LGT RAIN  53  52  96 VRB7      29.80R FOG
MAXWELL AFB    LGT RAIN  53  52  95 E8        29.82F
GREENVILLE     CLOUDY    56  54  93 SE6       29.80S
$$

ALZ019-021-028-029-037-038-045>048-222300-
EAST CENTRAL ALABAMA

CITY           SKY/WX    TMP DP  RH WIND       PRES   REMARKS
ANNISTON       LGT RAIN  50  47  89 E9        29.85R FOG
ALEXANDER CITY HVY RAIN  54  50  86 SE3       29.85S
AUBURN         CLOUDY    48  45  87 SE7       29.88S
$$

ALZ051>064-222300-
SOUTHWEST ALABAMA

CITY           SKY/WX    TMP DP  RH WIND       PRES   REMARKS
MOBILE         CLOUDY    69  66  90 S10       29.76S
BROOKLEY FIELD MOCLDY    67  64  90 S8        29.77S
EVERGREEN      LGT RAIN  62  59  90 E9        29.79F
$$

ALZ049-050-065>069-222300-
SOUTHEAST ALABAMA

CITY           SKY/WX    TMP DP  RH WIND       PRES   REMARKS
DOTHAN         FOG       55  55 100 E7        29.87S VSB 1/4
OZARK          CLOUDY    58  55  92 E3        29.83S
TROY           CLOUDY    55  53  93 E6        29.84S
EUFAULA        CLOUDY    54  52  93 CALM      29.86R
$$


USA.gov is the U.S. government's official web portal to all federal, state and local government web resources and services.